Year,Month,Day,Hour,Minute,Value (Times are PST for temperature in C)
2009,06,16,00,10,12.10
2009,06,16,00,21,11.90
2009,06,16,00,32,11.70
2009,06,16,00,43,11.60
2009,06,16,00,55,11.40
2009,06,16,00,56,11.40
2009,06,16,00,57,11.40
2009,06,16,01,08,11.30
2009,06,16,01,19,11.30
2009,06,16,01,30,11.20
2009,06,16,01,41,11.20
2009,06,16,01,45,11.20
2009,06,16,01,56,11.10
2009,06,16,02,07,11.10
2009,06,16,02,18,11.10
2009,06,16,02,29,10.90
2009,06,16,02,40,10.90
2009,06,16,02,51,10.80
2009,06,16,03,02,10.70
2009,06,16,03,13,10.70
2009,06,16,03,24,10.60
2009,06,16,03,35,10.40
2009,06,16,03,46,10.40
2009,06,16,03,58,10.40
2009,06,16,04,11,10.30
2009,06,16,04,21,10.40
2009,06,16,04,32,10.40
2009,06,16,04,43,10.30
2009,06,16,04,54,10.40
2009,06,16,05,05,10.60
2009,06,16,05,16,10.60
2009,06,16,05,27,10.60
2009,06,16,05,38,10.60
2009,06,16,05,49,10.70
2009,06,16,06,00,10.80
2009,06,16,06,02,10.80
2009,06,16,06,13,10.90
2009,06,16,06,25,11.10
2009,06,16,06,37,11.20
2009,06,16,06,49,11.40
2009,06,16,07,00,11.70
2009,06,16,07,03,11.70
2009,06,16,07,13,12.00
2009,06,16,07,24,12.40
2009,06,16,07,35,13.00
2009,06,16,07,46,13.60
2009,06,16,07,57,14.00
2009,06,16,08,08,14.20
2009,06,16,08,19,14.30
2009,06,16,08,28,14.60
2009,06,16,08,39,15.30
2009,06,16,08,50,15.70
2009,06,16,09,01,15.80
2009,06,16,09,12,16.00
2009,06,16,09,23,16.10
2009,06,16,09,34,16.30
2009,06,16,09,45,16.60
2009,06,16,09,56,17.10
2009,06,16,10,04,17.60
2009,06,16,10,15,17.80
2009,06,16,10,26,18.10
2009,06,16,10,37,18.10
2009,06,16,10,48,17.90
2009,06,16,10,59,17.70
2009,06,16,11,07,17.80
2009,06,16,11,18,18.20
2009,06,16,11,29,18.60
2009,06,16,11,39,18.30
2009,06,16,11,50,18.30
2009,06,16,12,01,18.40
2009,06,16,12,12,19.10
2009,06,16,12,23,19.50
2009,06,16,12,34,19.30
2009,06,16,12,42,19.30
2009,06,16,12,53,19.20
2009,06,16,13,04,18.60
2009,06,16,13,15,18.40
2009,06,16,13,26,18.60
2009,06,16,13,37,18.90
2009,06,16,13,48,19.10
2009,06,16,13,59,19.00
2009,06,16,14,03,18.90
2009,06,16,14,14,18.70
2009,06,16,14,25,18.70
2009,06,16,14,36,18.70
2009,06,16,14,47,19.20
2009,06,16,14,58,19.50
2009,06,16,15,08,19.90
2009,06,16,15,19,20.00
2009,06,16,15,30,20.10
2009,06,16,15,41,19.90
2009,06,16,15,52,20.10
2009,06,16,16,03,20.20
2009,06,16,16,14,20.00
2009,06,16,16,25,20.10
2009,06,16,16,36,20.20
2009,06,16,16,47,20.40
2009,06,16,16,58,20.30
2009,06,16,17,09,20.50
2009,06,16,17,20,20.40
2009,06,16,17,31,20.50
2009,06,16,17,42,20.70
2009,06,16,17,53,20.40
2009,06,16,18,04,19.90
2009,06,16,18,15,19.40
2009,06,16,18,26,19.30
2009,06,16,18,35,19.20
2009,06,16,18,46,18.90
2009,06,16,18,57,18.70
2009,06,16,19,07,18.50
2009,06,16,19,18,18.30
2009,06,16,19,29,18.10
2009,06,16,19,39,17.90
2009,06,16,19,49,17.70
2009,06,16,20,00,17.60
2009,06,16,20,09,17.40
2009,06,16,20,20,17.30
2009,06,16,20,31,17.20
2009,06,16,20,42,17.10
2009,06,16,20,53,16.80
2009,06,16,21,04,16.70
2009,06,16,21,15,16.60
2009,06,16,21,26,16.40
2009,06,16,21,37,16.30
2009,06,16,21,48,16.20
2009,06,16,21,59,16.20
2009,06,16,22,10,16.00
2009,06,16,22,21,15.80
2009,06,16,22,32,15.70
2009,06,16,22,43,15.60
2009,06,16,22,54,15.30
2009,06,16,23,05,15.00
2009,06,16,23,16,15.00
2009,06,16,23,27,15.00
2009,06,16,23,38,15.00
2009,06,16,23,49,15.00
